This is the latest recevied weather packets stored in our database for station/object AF9W-5. If no packets are shown the sender has not sent any weather packets the latest 10 day(s).
| Time | Temp. | Humidity | Pressure | Rain* | Wind** | Luminosity | Snow |
|---|---|---|---|---|---|---|---|
| 1777163310 | 25.56° C | 21% | 1008.8 hPa | 0 mm | - | 79 W/m² | - |
| 1777163006 | 25.56° C | 21% | 1008.9 hPa | 0 mm | - | 84 W/m² | - |
| 1777162701 | 25.56° C | 21% | 1008.8 hPa | 0 mm | - | 67 W/m² | - |
| 1777162396 | 25.56° C | 21% | 1008.6 hPa | 0 mm | - | 54 W/m² | - |
| 1777162096 | 25.56° C | 21% | 1008.8 hPa | 0 mm | - | 59 W/m² | - |
| 1777161791 | 26.11° C | 21% | 1008.6 hPa | 0 mm | - | 73 W/m² | - |
| 1777161489 | 26.11° C | 20% | 1008.8 hPa | 0 mm | - | 63 W/m² | - |
| 1777161184 | 26.11° C | 21% | 1008.8 hPa | 0 mm | - | 60 W/m² | - |
| 1777160880 | 26.67° C | 20% | 1008.6 hPa | 0 mm | - | 56 W/m² | - |
| 1777160576 | 26.11° C | 20% | 1008.7 hPa | 0 mm | - | 59 W/m² | - |
| 1777160272 | 26.67° C | 21% | 1008.6 hPa | 0 mm | - | 79 W/m² | - |
| 1777159968 | 26.67° C | 20% | 1008.8 hPa | 0 mm | - | 171 W/m² | - |
| 1777159664 | 26.67° C | 20% | 1008.8 hPa | 0 mm | - | 237 W/m² | - |
| 1777159361 | 26.67° C | 20% | 1008.6 hPa | 0 mm | - | 198 W/m² | - |
| 1777159057 | 27.22° C | 19% | 1008.9 hPa | 0 mm | - | 333 W/m² | - |
| 1777158753 | 26.67° C | 19% | 1009.1 hPa | 0 mm | - | 406 W/m² | - |
| 1777158447 | 27.22° C | 19% | 1008.6 hPa | 0 mm | - | 429 W/m² | - |
| 1777158142 | 27.22° C | 19% | 1008.9 hPa | 0 mm | - | 404 W/m² | - |
| 1777157838 | 27.22° C | 19% | 1009 hPa | 0 mm | - | 496 W/m² | - |
| 1777157534 | 27.22° C | 19% | 1008.9 hPa | 0 mm | - | 506 W/m² | - |
| 1777157231 | 26.67° C | 19% | 1009 hPa | 0 mm | - | 547 W/m² | - |
| 1777156930 | 26.67° C | 19% | 1009 hPa | 0 mm | - | 383 W/m² | - |
| 1777156625 | 27.22° C | 18% | 1009.2 hPa | 0 mm | - | 609 W/m² | - |
| 1777156323 | 27.22° C | 19% | 1009.3 hPa | 0 mm | - | 661 W/m² | - |
| 1777156019 | 27.22° C | 18% | 1009.1 hPa | 0 mm | - | 625 W/m² | - |
* Rain latest hour (hover to see other rain measurements)
** Current wind speed in m/s (hover to see current wind gust speed)